| time (UTC) | temp F | wind direction | speed MPH | gust MPH | rain 1hr in | rain 24hr in | rain mn in | humidity % | barometer mb |
| 20260902160023 | 86 | 113 | 1.0 | 4.0 | 0.00 | 0.00 | 0.00 | 70 | 1011.4 |
| 20260902154517 | 82 | 91 | 0.0 | 6.0 | 0.00 | 0.01 | 0.00 | 75 | 1011.5 |
| 20260902153014 | 77 | 202 | 2.0 | 4.0 | 0.00 | 0.01 | 0.00 | 78 | 1011.3 |
| 20260902151521 | 78 | 159 | 0.0 | 5.0 | 0.00 | 0.01 | 0.00 | 78 | 1011.5 |
| 20260902150013 | 80 | 188 | 1.0 | 4.0 | 0.00 | 0.01 | 0.00 | 78 | 1011.7 |
| 20260902144512 | 78 | 107 | 0.0 | 3.0 | 0.00 | 0.01 | 0.00 | 79 | 1011.9 |
| 20260902143011 | 82 | 109 | 1.0 | 3.0 | 0.00 | 0.01 | 0.00 | 77 | 1012.0 |
| 20260902141510 | 82 | 5 | 0.0 | 5.0 | 0.00 | 0.01 | 0.00 | 76 | 1011.9 |
| 20260902140014 | 82 | 142 | 0.0 | 6.0 | 0.00 | 0.01 | 0.00 | 76 | 1012.1 |
| 20260902134506 | 80 | 22 | 0.0 | 6.0 | 0.00 | 0.01 | 0.00 | 79 | 1012.0 |
| 20260902133002 | 79 | 65 | 0.0 | 5.0 | 0.00 | 0.01 | 0.00 | 81 | 1012.1 |
| 20260902131606 | 79 | 67 | 1.0 | 6.0 | 0.00 | 0.01 | 0.00 | 82 | 1012.1 |
| 20260902130057 | 78 | 24 | 5.0 | 8.0 | 0.00 | 0.01 | 0.00 | 84 | 1012.6 |
| 20260902124556 | 77 | 209 | 1.0 | 6.0 | 0.00 | 0.01 | 0.00 | 85 | 1011.7 |
| 20260902123055 | 76 | 226 | 0.0 | 4.0 | 0.00 | 0.01 | 0.00 | 87 | 1011.7 |
| 20260902121553 | 76 | 224 | 0.0 | 3.0 | 0.00 | 0.01 | 0.00 | 87 | 1011.6 |
| 20260902120053 | 75 | 212 | 0.0 | 2.0 | 0.00 | 0.01 | 0.00 | 88 | 1011.5 |
| 20260902114552 | 75 | 215 | 0.0 | 2.0 | 0.00 | 0.01 | 0.00 | 88 | 1011.4 |
| 20260902113052 | 76 | 227 | 0.0 | 3.0 | 0.00 | 0.01 | 0.00 | 88 | 1011.3 |
| 20260902111551 | 76 | 227 | 0.0 | 3.0 | 0.00 | 0.01 | 0.00 | 87 | 1011.3 |
| 20260902110051 | 76 | 234 | 0.0 | 0.0 | 0.00 | 0.01 | 0.00 | 88 | 1011.4 |
| 20260902104613 | 76 | 241 | 0.0 | 0.0 | 0.00 | 0.01 | 0.00 | 88 | 1011.4 |
| 20260902103048 | 76 | 238 | 0.0 | 0.0 | 0.00 | 0.01 | 0.00 | 88 | 1011.3 |
| 20260902101548 | 76 | 175 | 0.0 | 3.0 | 0.00 | 0.01 | 0.00 | 89 | 1011.3 |
| 20260902100107 | 76 | 232 | 0.0 | 1.0 | 0.00 | 0.01 | 0.00 | 89 | 1011.3 |
| 20260902094547 | 76 | 242 | 0.0 | 0.0 | 0.00 | 0.01 | 0.00 | 89 | 1011.4 |
| 20260902093048 | 76 | 242 | 0.0 | 0.0 | 0.00 | 0.01 | 0.00 | 90 | 1011.5 |
| 20260902091546 | 75 | 244 | 0.0 | 0.0 | 0.00 | 0.01 | 0.00 | 90 | 1011.5 |
| 20260902090045 | 76 | 244 | 0.0 | 0.0 | 0.00 | 0.01 | 0.00 | 90 | 1011.4 |
| 20260902084542 | 76 | 244 | 0.0 | 0.0 | 0.00 | 0.01 | 0.00 | 90 | 1011.3 |
| 20260902083052 | 76 | 251 | 0.0 | 0.0 | 0.00 | 0.01 | 0.00 | 90 | 1011.2 |
| 20260902081604 | 76 | 251 | 0.0 | 0.0 | 0.00 | 0.01 | 0.00 | 90 | 1011.2 |
| 20260902080053 | 77 | 251 | 0.0 | 0.0 | 0.00 | 0.01 | 0.00 | 89 | 1011.3 |
| 20260902074543 | 77 | 247 | 0.0 | 0.0 | 0.00 | 0.01 | 0.00 | 89 | 1011.2 |
| 20260902073038 | 77 | 247 | 0.0 | 0.0 | 0.00 | 0.01 | 0.00 | 90 | 1011.2 |
| 20260902071540 | 77 | 247 | 0.0 | 0.0 | 0.00 | 0.01 | 0.00 | 90 | 1011.2 |
| 20260902070039 | 77 | 247 | 0.0 | 0.0 | 0.00 | 0.01 | 0.00 | 90 | 1011.1 |
| 20260902064536 | 77 | 247 | 0.0 | 0.0 | 0.00 | 0.01 | 0.00 | 89 | 1011.4 |
| 20260902063040 | 78 | 247 | 0.0 | 0.0 | 0.00 | 0.01 | 0.00 | 89 | 1011.4 |
| 20260902061531 | 78 | 247 | 0.0 | 0.0 | 0.00 | 0.01 | 0.00 | 88 | 1011.3 |
| 20260902060033 | 78 | 247 | 0.0 | 0.0 | 0.00 | 0.01 | 0.00 | 88 | 1011.2 |
| 20260902054528 | 79 | 247 | 0.0 | 0.0 | 0.00 | 0.01 | 0.00 | 88 | 1011.1 |
| 20260902053026 | 79 | 247 | 0.0 | 0.0 | 0.00 | 0.01 | 0.00 | 87 | 1011.2 |
| 20260902051525 | 79 | 247 | 0.0 | 0.0 | 0.00 | 0.01 | 0.00 | 87 | 1011.1 |
| 20260902050025 | 79 | 248 | 0.0 | 1.0 | 0.00 | 0.01 | 0.00 | 87 | 1011.2 |
| 20260902044537 | 79 | 223 | 0.0 | 0.0 | 0.00 | 0.01 | 0.01 | 87 | 1011.1 |
| 20260902043022 | 79 | 223 | 0.0 | 0.0 | 0.00 | 0.01 | 0.01 | 88 | 1011.0 |
| 20260902041524 | 79 | 234 | 0.0 | 0.0 | 0.00 | 0.01 | 0.01 | 89 | 1011.0 |
| 20260902040022 | 79 | 234 | 0.0 | 0.0 | 0.00 | 0.01 | 0.01 | 90 | 1010.9 |
| 20260902034521 | 79 | 234 | 0.0 | 0.0 | 0.00 | 0.01 | 0.01 | 90 | 1011.1 |
| 20260902033020 | 80 | 234 | 0.0 | 0.0 | 0.00 | 0.01 | 0.01 | 90 | 1011.2 |
| 20260902031532 | 80 | 234 | 0.0 | 0.0 | 0.00 | 0.01 | 0.01 | 90 | 1011.4 |
| 20260902030020 | 80 | 234 | 0.0 | 0.0 | 0.00 | 0.01 | 0.01 | 88 | 1011.4 |
| 20260902024519 | 81 | 234 | 0.0 | 0.0 | 0.00 | 0.01 | 0.01 | 88 | 1011.3 |
| 20260902023019 | 81 | 234 | 0.0 | 0.0 | 0.00 | 0.01 | 0.01 | 87 | 1011.3 |
| 20260902021530 | 82 | 234 | 0.0 | 0.0 | 0.00 | 0.01 | 0.01 | 86 | 1011.3 |
| 20260902020019 | 82 | 234 | 0.0 | 0.0 | 0.00 | 0.01 | 0.01 | 85 | 1011.1 |
| 20260902014540 | 82 | 234 | 0.0 | 0.0 | 0.00 | 0.01 | 0.01 | 84 | 1011.0 |
| 20260902013016 | 83 | 234 | 0.0 | 0.0 | 0.00 | 0.01 | 0.01 | 84 | 1010.8 |
| 20260902011516 | 83 | 234 | 0.0 | 0.0 | 0.00 | 0.01 | 0.01 | 82 | 1010.5 |
| 20260902010020 | 84 | 234 | 0.0 | 0.0 | 0.00 | 0.01 | 0.01 | 81 | 1010.4 |
| 20260902004518 | 85 | 234 | 0.0 | 0.0 | 0.00 | 0.01 | 0.01 | 79 | 1010.3 |
| 20260902003015 | 85 | 234 | 0.0 | 0.0 | 0.00 | 0.01 | 0.01 | 79 | 1010.2 |
| 20260902001514 | 86 | 234 | 0.0 | 2.0 | 0.00 | 0.01 | 0.01 | 81 | 1010.1 |
| 20260902000018 | 86 | 312 | 0.0 | 0.0 | 0.00 | 0.01 | 0.01 | 80 | 1010.2 |
| 20260901234532 | 87 | 312 | 0.0 | 2.0 | 0.00 | 0.01 | 0.01 | 78 | 1010.3 |
| 20260901233012 | 88 | 332 | 0.0 | 2.0 | 0.00 | 0.01 | 0.01 | 75 | 1010.5 |
| 20260901231510 | 88 | 202 | 0.0 | 5.0 | 0.00 | 0.01 | 0.01 | 77 | 1010.5 |
| 20260901230013 | 87 | 222 | 0.0 | 2.0 | 0.00 | 0.01 | 0.01 | 80 | 1010.6 |
| 20260901224508 | 82 | 211 | 0.0 | 2.0 | 0.00 | 0.01 | 0.01 | 87 | 1010.6 |
| 20260901223011 | 79 | 206 | 0.0 | 4.0 | 0.00 | 0.01 | 0.01 | 85 | 1010.7 |
| 20260901221525 | 79 | 209 | 0.0 | 3.0 | 0.00 | 0.01 | 0.01 | 86 | 1010.8 |
| 20260901220012 | 78 | 209 | 0.0 | 2.0 | 0.00 | 0.01 | 0.01 | 88 | 1010.7 |
| 20260901214505 | 78 | 209 | 2.0 | 3.0 | 0.00 | 0.01 | 0.01 | 88 | 1010.7 |
| 20260901213005 | 78 | 209 | 0.0 | 5.0 | 0.00 | 0.01 | 0.01 | 89 | 1010.8 |
| 20260901211506 | 78 | 232 | 3.0 | 6.0 | 0.00 | 0.01 | 0.01 | 85 | 1010.8 |
| 20260901210007 | 79 | 238 | 1.0 | 3.0 | 0.00 | 0.01 | 0.01 | 82 | 1010.9 |
| 20260901204505 | 79 | 257 | 1.0 | 4.0 | 0.00 | 0.21 | 0.01 | 83 | 1011.0 |
| 20260901203005 | 79 | 228 | 0.0 | 4.0 | 0.00 | 0.21 | 0.01 | 83 | 1011.1 |
| 20260901201511 | 79 | 232 | 0.0 | 5.0 | 0.00 | 0.21 | 0.01 | 83 | 1011.0 |
| 20260901200002 | 78 | 231 | 3.0 | 7.0 | 0.00 | 0.21 | 0.01 | 86 | 1011.2 |
| 20260901194502 | 78 | 221 | 6.0 | 11.0 | 0.00 | 0.22 | 0.01 | 86 | 1011.2 |
| 20260901193002 | 78 | 211 | 6.0 | 12.0 | 0.00 | 0.22 | 0.01 | 91 | 1011.3 |
| 20260901191505 | 78 | 225 | 7.0 | 12.0 | 0.00 | 0.22 | 0.01 | 87 | 1011.3 |
| 20260901190100 | 80 | 214 | 6.0 | 9.0 | 0.00 | 0.22 | 0.01 | 83 | 1011.3 |
| 20260901190002 | 81 | 216 | 6.0 | 9.0 | 0.00 | 0.22 | 0.01 | 82 | 1011.3 |
| 20260901184607 | 84 | 198 | 1.0 | 6.0 | 0.00 | 0.22 | 0.01 | 78 | 1011.3 |
| 20260901183105 | 89 | 209 | 3.0 | 7.0 | 0.00 | 0.22 | 0.01 | 72 | 1011.3 |
| 20260901181554 | 88 | 153 | 0.0 | 5.0 | 0.00 | 0.22 | 0.01 | 78 | 1011.5 |
| 20260901180050 | 86 | 223 | 1.0 | 9.0 | 0.00 | 0.22 | 0.01 | 80 | 1011.6 |
| 20260901174547 | 83 | 178 | 0.0 | 0.0 | 0.00 | 0.22 | 0.01 | 86 | 1011.9 |
| 20260901173046 | 83 | 181 | 0.0 | 0.0 | 0.00 | 0.22 | 0.01 | 81 | 1012.0 |
| 20260901171549 | 84 | 169 | 0.0 | 0.0 | 0.00 | 0.22 | 0.01 | 86 | 1012.1 |
| 20260901170045 | 83 | 107 | 0.0 | 0.0 | 0.00 | 0.22 | 0.01 | 88 | 1012.1 |
| 20260901164544 | 83 | 107 | 0.0 | 0.0 | 0.00 | 0.22 | 0.01 | 88 | 1012.5 |
| 20260901163046 | 83 | 123 | 0.0 | 0.0 | 0.01 | 0.22 | 0.01 | 88 | 1012.7 |
| 20260901161545 | 83 | 256 | 0.0 | 0.0 | 0.01 | 0.22 | 0.01 | 88 | 1012.5 |